When you browse on this site, cookies collect data to enhance your experience and personalize the content and advertising you see.
Visit our Privacy Policy to learn more. By continuing to use the site, you agree to this use of cookies and data.
  • In Austria
  • List of Countries
  • For 7 days
  • Water Temperature
  • Weather Map
  • News
  • Weather Widgets
  • user-avatar
    Login

    Hourly Weather Singuilucan

    Today, 17 August, Saturday

    Time Temperature Precipitation Wind Pressure Humidity
    00:00 +12°C° 0 mm 1 mps 555 mmHg 88%
    01:00 +11°C° 0 mm 1 mps 555 mmHg 88%
    02:00 +11°C° 0 mm 1 mps 554 mmHg 87%
    03:00 +11°C° 0 mm 1 mps 554 mmHg 88%
    04:00 +11°C° 0 mm 1 mps 554 mmHg 88%
    05:00 +11°C° 0 mm 1 mps 554 mmHg 89%
    06:00 +13°C° 0 mm 1 mps 555 mmHg 81%
    07:00 +15°C° 0 mm 1 mps 557 mmHg 73%
    08:00 +16°C° 0 mm 0 mps 558 mmHg 65%
    09:00 +20°C° 0 mm 1 mps 559 mmHg 59%
    10:00 +22°C° 0 mm 1 mps 559 mmHg 52%
    11:00 +23°C° 0 mm 1 mps 560 mmHg 46%
    12:00 +23°C° 0.2 mm 2 mps 559 mmHg 51%
    13:00 +21°C° 0.2 mm 3 mps 558 mmHg 56%
    14:00 +21°C° 0.2 mm 4 mps 557 mmHg 61%
    15:00 +20°C° 0.6 mm 4 mps 557 mmHg 66%
    16:00 +19°C° 0.6 mm 4 mps 556 mmHg 71%
    17:00 +18°C° 0.6 mm 3 mps 555 mmHg 76%
    18:00 +16°C° 0.2 mm 3 mps 555 mmHg 82%
    19:00 +14°C° 0.2 mm 2 mps 555 mmHg 87%
    20:00 +13°C° 0.2 mm 1 mps 554 mmHg 93%
    21:00 +12°C° 0 mm 1 mps 554 mmHg 89%
    22:00 +12°C° 0 mm 1 mps 554 mmHg 86%
    23:00 +12°C° 0 mm 1 mps 554 mmHg 82%

    Tomorrow, 18 August, Sunday

    Time Temperature Precipitation Wind Pressure Humidity
    00:00 +11°C° 0 mm 1 mps 554 mmHg 81%
    01:00 +11°C° 0 mm 1 mps 554 mmHg 81%
    02:00 +10°C° 0 mm 0 mps 553 mmHg 80%
    03:00 +10°C° 0 mm 0 mps 553 mmHg 81%
    04:00 +10°C° 0 mm 0 mps 553 mmHg 81%
    05:00 +10°C° 0 mm 0 mps 553 mmHg 82%
    06:00 +12°C° 0 mm 0 mps 555 mmHg 75%
    07:00 +14°C° 0 mm 0 mps 556 mmHg 68%
    08:00 +16°C° 0 mm 0 mps 557 mmHg 62%
    09:00 +20°C° 0 mm 1 mps 558 mmHg 55%
    10:00 +21°C° 0 mm 1 mps 558 mmHg 49%
    11:00 +23°C° 0 mm 2 mps 559 mmHg 43%
    12:00 +22°C° 0 mm 3 mps 558 mmHg 46%
    13:00 +22°C° 0 mm 4 mps 558 mmHg 49%
    14:00 +22°C° 0 mm 4 mps 557 mmHg 52%
    15:00 +20°C° 0.3 mm 4 mps 557 mmHg 60%
    16:00 +19°C° 0.3 mm 4 mps 556 mmHg 69%
    17:00 +17°C° 0.3 mm 4 mps 555 mmHg 78%
    18:00 +16°C° 0.2 mm 3 mps 555 mmHg 83%
    19:00 +13°C° 0.2 mm 3 mps 555 mmHg 89%
    20:00 +13°C° 0.2 mm 2 mps 555 mmHg 94%
    21:00 +12°C° 0 mm 2 mps 554 mmHg 94%
    22:00 +12°C° 0 mm 2 mps 554 mmHg 94%
    23:00 +12°C° 0 mm 2 mps 554 mmHg 94%

    Day after tomorrow, 19 August, Monday

    Time Temperature Precipitation Wind Pressure Humidity
    00:00 +12°C° 0 mm 1 mps 554 mmHg 94%
    01:00 +11°C° 0 mm 1 mps 554 mmHg 95%
    02:00 +11°C° 0 mm 1 mps 553 mmHg 95%
    03:00 +11°C° 0 mm 1 mps 553 mmHg 95%
    04:00 +11°C° 0 mm 1 mps 554 mmHg 95%
    05:00 +11°C° 0 mm 1 mps 554 mmHg 95%
    06:00 +12°C° 0 mm 1 mps 555 mmHg 89%
    07:00 +14°C° 0 mm 1 mps 555 mmHg 83%
    08:00 +15°C° 0 mm 1 mps 556 mmHg 77%
    09:00 +16°C° 0 mm 2 mps 557 mmHg 71%
    10:00 +18°C° 0 mm 3 mps 558 mmHg 65%
    11:00 +20°C° 0 mm 4 mps 558 mmHg 59%
    12:00 +19°C° 0.5 mm 5 mps 557 mmHg 63%
    13:00 +19°C° 0.5 mm 5 mps 557 mmHg 67%
    14:00 +17°C° 0.5 mm 6 mps 556 mmHg 71%
    15:00 +16°C° 0.1 mm 5 mps 555 mmHg 74%
    16:00 +15°C° 0.1 mm 5 mps 555 mmHg 78%
    17:00 +14°C° 0.1 mm 4 mps 555 mmHg 81%
    18:00 +13°C° 0 mm 4 mps 555 mmHg 85%
    19:00 +12°C° 0 mm 3 mps 555 mmHg 90%
    20:00 +11°C° 0 mm 3 mps 555 mmHg 94%
    21:00 +10°C° 0 mm 2 mps 554 mmHg 94%
    22:00 +9°C° 0 mm 2 mps 554 mmHg 94%
    23:00 +8°C° 0 mm 2 mps 554 mmHg 94%

    20 August, Tuesday

    Time Temperature Precipitation Wind Pressure Humidity
    00:00 +9°C° 0 mm 1 mps 553 mmHg 92%
    01:00 +8°C° 0 mm 1 mps 553 mmHg 91%
    02:00 +8°C° 0 mm 1 mps 552 mmHg 89%
    03:00 +7°C° 0 mm 1 mps 552 mmHg 88%
    04:00 +7°C° 0 mm 1 mps 552 mmHg 87%
    05:00 +7°C° 0 mm 1 mps 552 mmHg 87%
    06:00 +9°C° 0 mm 1 mps 554 mmHg 79%
    07:00 +12°C° 0 mm 2 mps 555 mmHg 70%
    08:00 +14°C° 0 mm 2 mps 557 mmHg 62%
    09:00 +16°C° 0 mm 3 mps 558 mmHg 58%
    10:00 +18°C° 0 mm 4 mps 558 mmHg 54%
    11:00 +19°C° 0 mm 4 mps 559 mmHg 50%
    12:00 +19°C° 0 mm 5 mps 558 mmHg 53%
    13:00 +19°C° 0 mm 5 mps 558 mmHg 56%
    14:00 +19°C° 0 mm 6 mps 557 mmHg 60%
    15:00 +16°C° 0.1 mm 5 mps 557 mmHg 66%
    16:00 +15°C° 0.1 mm 5 mps 556 mmHg 73%
    17:00 +13°C° 0.1 mm 5 mps 555 mmHg 80%
    18:00 +12°C° 0 mm 4 mps 556 mmHg 84%
    19:00 +12°C° 0 mm 3 mps 556 mmHg 88%
    20:00 +12°C° 0 mm 2 mps 556 mmHg 92%
    21:00 +12°C° 0 mm 2 mps 556 mmHg 92%
    22:00 +10°C° 0 mm 2 mps 556 mmHg 92%
    23:00 +10°C° 0 mm 2 mps 556 mmHg 92%

    21 August, Wednesday

    Time Temperature Precipitation Wind Pressure Humidity
    00:00 +10°C° 0 mm 2 mps 555 mmHg 92%
    01:00 +10°C° 0 mm 1 mps 555 mmHg 91%
    02:00 +10°C° 0 mm 1 mps 554 mmHg 91%
    03:00 +10°C° 0 mm 1 mps 554 mmHg 92%
    04:00 +9°C° 0 mm 1 mps 554 mmHg 93%
    05:00 +8°C° 0 mm 1 mps 554 mmHg 94%
    06:00 +10°C° 0 mm 1 mps 555 mmHg 88%
    07:00 +12°C° 0 mm 1 mps 556 mmHg 81%
    08:00 +14°C° 0 mm 1 mps 557 mmHg 74%
    09:00 +15°C° 0 mm 2 mps 557 mmHg 70%
    10:00 +16°C° 0 mm 2 mps 558 mmHg 66%
    11:00 +18°C° 0 mm 2 mps 558 mmHg 62%
    12:00 +17°C° 0.9 mm 3 mps 558 mmHg 67%
    13:00 +17°C° 0.9 mm 3 mps 557 mmHg 71%
    14:00 +17°C° 0.9 mm 3 mps 556 mmHg 75%
    15:00 +16°C° 0.8 mm 3 mps 556 mmHg 79%
    16:00 +14°C° 0.8 mm 3 mps 556 mmHg 84%
    17:00 +13°C° 0.8 mm 3 mps 555 mmHg 88%
    18:00 +12°C° 0.4 mm 3 mps 555 mmHg 90%
    19:00 +13°C° 0.4 mm 2 mps 555 mmHg 93%
    20:00 +12°C° 0.4 mm 2 mps 556 mmHg 95%
    21:00 +12°C° 1.3 mm 1 mps 556 mmHg 95%
    22:00 +12°C° 1.3 mm 1 mps 556 mmHg 95%
    23:00 +12°C° 1.3 mm 1 mps 556 mmHg 95%

    22 August, Thursday

    Time Temperature Precipitation Wind Pressure Humidity
    00:00 +12°C° 0.6 mm 1 mps 556 mmHg 95%
    01:00 +12°C° 0.6 mm 1 mps 555 mmHg 94%
    02:00 +10°C° 0.6 mm 0 mps 555 mmHg 94%
    03:00 +10°C° 0.1 mm 0 mps 555 mmHg 94%
    04:00 +10°C° 0.1 mm 0 mps 555 mmHg 94%
    05:00 +10°C° 0.1 mm 0 mps 555 mmHg 94%
    06:00 +11°C° 0 mm 0 mps 556 mmHg 88%
    07:00 +14°C° 0 mm 1 mps 557 mmHg 82%
    08:00 +15°C° 0 mm 1 mps 558 mmHg 76%
    09:00 +16°C° 0.4 mm 1 mps 558 mmHg 72%
    10:00 +19°C° 0.4 mm 1 mps 558 mmHg 68%
    11:00 +20°C° 0.4 mm 1 mps 559 mmHg 63%
    12:00 +20°C° 1.6 mm 1 mps 558 mmHg 66%
    13:00 +18°C° 1.6 mm 2 mps 558 mmHg 69%
    14:00 +18°C° 1.6 mm 2 mps 557 mmHg 72%
    15:00 +17°C° 1.6 mm 2 mps 557 mmHg 77%
    16:00 +16°C° 1.6 mm 3 mps 556 mmHg 82%
    17:00 +14°C° 1.6 mm 3 mps 556 mmHg 86%
    18:00 +14°C° 0.7 mm 2 mps 556 mmHg 89%
    19:00 +14°C° 0.7 mm 2 mps 556 mmHg 91%
    20:00 +13°C° 0.7 mm 2 mps 556 mmHg 93%
    21:00 +13°C° 0.9 mm 2 mps 556 mmHg 93%
    22:00 +12°C° 0.9 mm 1 mps 556 mmHg 93%
    23:00 +12°C° 0.9 mm 1 mps 556 mmHg 93%
    Show more